Location: Mexico
(19.4000°N, 99.1500°W)
Time: 09:44:11
(UTC-06:00)

ISS - Pass Details

Date: 18 January 2018
Orbit: 402 x 407 km, 51.6° (Epoch: 23 January)

Event Time Altitude Azimuth Distance (km) Brightness Sun altitude
Rises 20:03:24 0° 202° (SSW) 2,296 0.5 -23.8°
Reaches altitude 10° 20:05:34 10° 193° (SSW) 1,440 -0.7 -24.3°
Enters shadow 20:06:00 13° 189° (S) 1,282 -1.1 -24.4°
